When you browse on this site, cookies collect data to enhance your experience and personalize the content and advertising you see.
Visit our Privacy Policy to learn more. By continuing to use the site, you agree to this use of cookies and data.
  • In United Kingdom
  • List of Countries
  • For 7 days
  • Water Temperature
  • Weather Map
  • Weather Widgets
  • user-avatar
    Login

    Hourly Weather Cajamarca

    Today, 16 October, Wednesday

    Time Temperature Precipitation Wind Pressure Humidity
    00:00 +12°C° 0.2 mm 0 mps 544 mmHg 86%
    01:00 +13°C° 0 mm 1 mps 544 mmHg 86%
    02:00 +12°C° 0.3 mm 1 mps 544 mmHg 88%
    03:00 +12°C° 0.3 mm 1 mps 543 mmHg 89%
    04:00 +12°C° 0.3 mm 1 mps 543 mmHg 90%
    05:00 +12°C° 0.3 mm 1 mps 544 mmHg 88%
    06:00 +13°C° 0.3 mm 1 mps 544 mmHg 85%
    07:00 +13°C° 0.3 mm 1 mps 545 mmHg 83%
    08:00 +14°C° 0.2 mm 1 mps 546 mmHg 77%
    09:00 +16°C° 0.2 mm 2 mps 546 mmHg 70%
    10:00 +17°C° 0.2 mm 2 mps 547 mmHg 64%
    11:00 +18°C° 0.6 mm 2 mps 547 mmHg 61%
    12:00 +19°C° 0.6 mm 2 mps 547 mmHg 59%
    13:00 +20°C° 0.6 mm 2 mps 547 mmHg 57%
    14:00 +18°C° 1.1 mm 2 mps 546 mmHg 63%
    15:00 +17°C° 1.1 mm 2 mps 545 mmHg 69%
    16:00 +16°C° 1.1 mm 2 mps 544 mmHg 75%
    17:00 +15°C° 0.8 mm 2 mps 544 mmHg 79%
    18:00 +14°C° 0.8 mm 1 mps 544 mmHg 83%
    19:00 +14°C° 0.8 mm 1 mps 544 mmHg 88%
    20:00 +13°C° 0.2 mm 1 mps 544 mmHg 89%
    21:00 +12°C° 0.2 mm 0 mps 544 mmHg 90%
    22:00 +12°C° 0.2 mm 0 mps 545 mmHg 91%
    23:00 +12°C° 0.3 mm 0 mps 545 mmHg 91%

    Tomorrow, 17 October, Thursday

    Time Temperature Precipitation Wind Pressure Humidity
    00:00 +12°C° 0.3 mm 0 mps 545 mmHg 91%
    01:00 +13°C° 0.3 mm 1 mps 544 mmHg 90%
    02:00 +11°C° 0.3 mm 0 mps 544 mmHg 91%
    03:00 +11°C° 0.3 mm 0 mps 543 mmHg 92%
    04:00 +11°C° 0.3 mm 0 mps 543 mmHg 93%
    05:00 +11°C° 0.2 mm 0 mps 544 mmHg 91%
    06:00 +12°C° 0.2 mm 0 mps 544 mmHg 89%
    07:00 +12°C° 0.2 mm 0 mps 545 mmHg 86%
    08:00 +15°C° 0.4 mm 1 mps 545 mmHg 79%
    09:00 +16°C° 0.4 mm 1 mps 546 mmHg 71%
    10:00 +19°C° 0.4 mm 1 mps 547 mmHg 64%
    11:00 +19°C° 1.1 mm 1 mps 547 mmHg 64%
    12:00 +18°C° 1.1 mm 2 mps 546 mmHg 64%
    13:00 +18°C° 1.1 mm 2 mps 546 mmHg 65%
    14:00 +17°C° 1.3 mm 2 mps 545 mmHg 69%
    15:00 +16°C° 1.3 mm 2 mps 544 mmHg 74%
    16:00 +15°C° 1.3 mm 2 mps 543 mmHg 79%
    17:00 +14°C° 2.5 mm 2 mps 543 mmHg 83%
    18:00 +13°C° 2.5 mm 2 mps 543 mmHg 87%
    19:00 +12°C° 2.5 mm 2 mps 543 mmHg 91%
    20:00 +12°C° 1.7 mm 1 mps 543 mmHg 91%
    21:00 +12°C° 1.7 mm 1 mps 544 mmHg 90%
    22:00 +12°C° 1.7 mm 1 mps 544 mmHg 89%
    23:00 +12°C° 1.2 mm 1 mps 544 mmHg 90%

    Day after tomorrow, 18 October, Friday

    Time Temperature Precipitation Wind Pressure Humidity
    00:00 +12°C° 1.2 mm 1 mps 543 mmHg 90%
    01:00 +11°C° 1.2 mm 1 mps 543 mmHg 90%
    02:00 +11°C° 1.5 mm 1 mps 543 mmHg 90%
    03:00 +11°C° 1.5 mm 1 mps 543 mmHg 91%
    04:00 +11°C° 1.5 mm 1 mps 543 mmHg 91%
    05:00 +12°C° 0.8 mm 1 mps 543 mmHg 90%
    06:00 +12°C° 0.8 mm 1 mps 543 mmHg 88%
    07:00 +11°C° 0.8 mm 0 mps 544 mmHg 86%
    08:00 +13°C° 0.3 mm 1 mps 545 mmHg 81%
    09:00 +14°C° 0.3 mm 1 mps 545 mmHg 76%
    10:00 +15°C° 0.3 mm 1 mps 546 mmHg 71%
    11:00 +16°C° 0.3 mm 1 mps 546 mmHg 68%
    12:00 +19°C° 0.3 mm 1 mps 546 mmHg 64%
    13:00 +20°C° 0.3 mm 1 mps 547 mmHg 60%
    14:00 +18°C° 1.4 mm 2 mps 546 mmHg 66%
    15:00 +17°C° 1.4 mm 2 mps 545 mmHg 73%
    16:00 +15°C° 1.4 mm 2 mps 544 mmHg 79%
    17:00 +14°C° 3.6 mm 2 mps 543 mmHg 83%
    18:00 +13°C° 3.6 mm 2 mps 543 mmHg 86%
    19:00 +10°C° 3.6 mm 2 mps 543 mmHg 89%
    20:00 +10°C° 1.7 mm 2 mps 543 mmHg 88%
    21:00 +12°C° 1.7 mm 1 mps 544 mmHg 88%
    22:00 +12°C° 1.7 mm 1 mps 544 mmHg 87%
    23:00 +12°C° 0.1 mm 1 mps 544 mmHg 87%

    19 October, Saturday

    Time Temperature Precipitation Wind Pressure Humidity
    00:00 +11°C° 0.1 mm 0 mps 544 mmHg 86%
    01:00 +11°C° 0.1 mm 0 mps 544 mmHg 85%
    02:00 +11°C° 0 mm 0 mps 543 mmHg 87%
    03:00 +10°C° 0 mm 0 mps 543 mmHg 88%
    04:00 +10°C° 0 mm 0 mps 543 mmHg 90%
    05:00 +12°C° 0 mm 1 mps 543 mmHg 88%
    06:00 +12°C° 0 mm 1 mps 544 mmHg 86%
    07:00 +13°C° 0 mm 1 mps 544 mmHg 84%
    08:00 +14°C° 0.1 mm 1 mps 545 mmHg 77%
    09:00 +16°C° 0.1 mm 1 mps 546 mmHg 71%
    10:00 +19°C° 0.1 mm 1 mps 547 mmHg 65%
    11:00 +18°C° 1.3 mm 2 mps 547 mmHg 67%
    12:00 +17°C° 1.3 mm 2 mps 546 mmHg 69%
    13:00 +17°C° 1.3 mm 2 mps 545 mmHg 70%
    14:00 +16°C° 2.1 mm 2 mps 545 mmHg 75%
    15:00 +15°C° 2.1 mm 2 mps 544 mmHg 79%
    16:00 +13°C° 2.1 mm 3 mps 543 mmHg 83%
    17:00 +13°C° 2.1 mm 2 mps 543 mmHg 84%
    18:00 +13°C° 2.1 mm 2 mps 543 mmHg 86%
    19:00 +12°C° 2.1 mm 1 mps 543 mmHg 87%
    20:00 +12°C° 0.7 mm 1 mps 543 mmHg 87%
    21:00 +12°C° 0.7 mm 1 mps 544 mmHg 87%
    22:00 +12°C° 0.7 mm 1 mps 544 mmHg 88%
    23:00 +12°C° 0.1 mm 1 mps 544 mmHg 89%

    20 October, Sunday

    Time Temperature Precipitation Wind Pressure Humidity
    00:00 +10°C° 0.1 mm 0 mps 543 mmHg 90%
    01:00 +10°C° 0.1 mm 0 mps 543 mmHg 91%
    02:00 +10°C° 0 mm 0 mps 543 mmHg 92%
    03:00 +10°C° 0 mm 0 mps 542 mmHg 92%
    04:00 +10°C° 0 mm 0 mps 542 mmHg 93%
    05:00 +10°C° 0 mm 0 mps 543 mmHg 91%
    06:00 +10°C° 0 mm 0 mps 543 mmHg 89%
    07:00 +12°C° 0 mm 1 mps 544 mmHg 87%
    08:00 +14°C° 0.1 mm 1 mps 545 mmHg 80%
    09:00 +15°C° 0.1 mm 1 mps 546 mmHg 74%
    10:00 +18°C° 0.1 mm 1 mps 547 mmHg 67%
    11:00 +17°C° 0.7 mm 2 mps 547 mmHg 69%
    12:00 +17°C° 0.7 mm 2 mps 546 mmHg 71%
    13:00 +17°C° 0.7 mm 2 mps 545 mmHg 74%
    14:00 +16°C° 1.2 mm 2 mps 544 mmHg 77%
    15:00 +15°C° 1.2 mm 2 mps 544 mmHg 80%
    16:00 +14°C° 1.2 mm 2 mps 543 mmHg 84%
    17:00 +14°C° 1.1 mm 2 mps 543 mmHg 86%
    18:00 +13°C° 1.1 mm 2 mps 543 mmHg 89%
    19:00 +13°C° 1.1 mm 1 mps 543 mmHg 91%
    20:00 +13°C° 2.2 mm 1 mps 543 mmHg 90%
    21:00 +12°C° 2.2 mm 1 mps 544 mmHg 90%
    22:00 +12°C° 2.2 mm 1 mps 544 mmHg 90%
    23:00 +12°C° 0.6 mm 1 mps 544 mmHg 90%

    21 October, Monday

    Time Temperature Precipitation Wind Pressure Humidity
    00:00 +11°C° 0.6 mm 0 mps 543 mmHg 90%
    01:00 +11°C° 0.6 mm 0 mps 543 mmHg 90%
    02:00 +11°C° 0 mm 0 mps 543 mmHg 91%
    03:00 +10°C° 0 mm 0 mps 543 mmHg 92%
    04:00 +10°C° 0 mm 0 mps 542 mmHg 93%
    05:00 +11°C° 0 mm 0 mps 543 mmHg 91%
    06:00 +12°C° 0 mm 1 mps 543 mmHg 89%
    07:00 +13°C° 0 mm 1 mps 544 mmHg 87%
    08:00 +14°C° 0.3 mm 1 mps 545 mmHg 81%
    09:00 +16°C° 0.3 mm 1 mps 546 mmHg 75%
    10:00 +17°C° 0.3 mm 2 mps 547 mmHg 69%
    11:00 +17°C° 1 mm 2 mps 546 mmHg 70%
    12:00 +17°C° 1 mm 2 mps 546 mmHg 71%
    13:00 +17°C° 1 mm 2 mps 545 mmHg 71%
    14:00 +16°C° 1.3 mm 2 mps 544 mmHg 75%
    15:00 +16°C° 1.3 mm 2 mps 544 mmHg 79%
    16:00 +15°C° 1.3 mm 2 mps 543 mmHg 83%
    17:00 +14°C° 1 mm 2 mps 543 mmHg 86%
    18:00 +14°C° 1 mm 1 mps 543 mmHg 89%
    19:00 +13°C° 1 mm 1 mps 543 mmHg 92%
    20:00 +13°C° 0.9 mm 1 mps 544 mmHg 92%
    21:00 +13°C° 0.9 mm 1 mps 544 mmHg 93%
    22:00 +11°C° 0.9 mm 0 mps 544 mmHg 94%
    23:00 +11°C° 0.4 mm 0 mps 544 mmHg 93%
    Show more